| time (UTC) | temp F | wind direction | speed MPH | gust MPH | rain 1hr in | rain 24hr in | rain mn in | humidity % | barometer mb |
| 20260901133544 | 49 | 360 | 0.0 | 0.0 | 0.00 | 0.00 | 0.00 | 80 | 934.4 |
| 20260901133046 | 48 | 360 | 0.0 | 0.0 | 0.00 | 0.00 | 0.00 | 81 | 934.4 |
| 20260901132547 | 48 | 360 | 0.0 | 0.0 | 0.00 | 0.00 | 0.00 | 82 | 934.4 |
| 20260901132045 | 47 | 360 | 0.0 | 0.0 | 0.00 | 0.00 | 0.00 | 83 | 934.4 |
| 20260901131043 | 46 | 360 | 0.0 | 0.0 | 0.00 | 0.00 | 0.00 | 84 | 934.6 |
| 20260901130544 | 45 | 360 | 0.0 | 0.0 | 0.00 | 0.00 | 0.00 | 85 | 934.5 |
| 20260901130042 | 44 | 360 | 0.0 | 0.0 | 0.00 | 0.00 | 0.00 | 85 | 934.5 |
| 20260901125543 | 43 | 360 | 0.0 | 0.0 | 0.00 | 0.00 | 0.00 | 85 | 934.4 |
| 20260901125044 | 42 | 223 | 0.0 | 0.0 | 0.00 | 0.00 | 0.00 | 85 | 934.4 |
| 20260901124551 | 42 | 360 | 0.0 | 0.0 | 0.00 | 0.00 | 0.00 | 84 | 934.4 |
| 20260901124041 | 42 | 360 | 0.0 | 0.0 | 0.00 | 0.00 | 0.00 | 83 | 934.3 |
| 20260901123545 | 42 | 360 | 0.0 | 0.0 | 0.00 | 0.00 | 0.00 | 82 | 934.3 |
| 20260901123040 | 42 | 360 | 0.0 | 0.0 | 0.00 | 0.00 | 0.00 | 82 | 934.3 |
| 20260901122539 | 43 | 360 | 0.0 | 0.0 | 0.00 | 0.00 | 0.00 | 80 | 934.3 |
| 20260901122141 | 44 | 360 | 0.0 | 0.0 | 0.00 | 0.00 | 0.00 | 79 | 934.2 |
| 20260901121039 | 45 | 360 | 0.0 | 0.0 | 0.00 | 0.00 | 0.00 | 83 | 934.3 |
| 20260901120539 | 44 | 360 | 0.0 | 0.0 | 0.00 | 0.00 | 0.00 | 83 | 934.3 |
| 20260901120038 | 44 | 360 | 0.0 | 0.0 | 0.00 | 0.00 | 0.00 | 83 | 934.3 |
| 20260901115539 | 43 | 360 | 0.0 | 0.0 | 0.00 | 0.00 | 0.00 | 83 | 934.3 |
| 20260901115038 | 43 | 360 | 0.0 | 0.0 | 0.00 | 0.00 | 0.00 | 83 | 934.2 |
| 20260901114539 | 43 | 360 | 0.0 | 0.0 | 0.00 | 0.00 | 0.00 | 83 | 934.2 |
| 20260901114038 | 43 | 360 | 0.0 | 0.0 | 0.00 | 0.00 | 0.00 | 83 | 934.3 |
| 20260901113538 | 43 | 360 | 0.0 | 0.0 | 0.00 | 0.00 | 0.00 | 82 | 934.3 |
| 20260901113041 | 43 | 360 | 0.0 | 0.0 | 0.00 | 0.00 | 0.00 | 81 | 934.2 |
| 20260901112537 | 43 | 360 | 0.0 | 0.0 | 0.00 | 0.00 | 0.00 | 82 | 934.2 |
| 20260901112037 | 44 | 360 | 0.0 | 0.0 | 0.00 | 0.00 | 0.00 | 82 | 934.2 |
| 20260901111038 | 44 | 360 | 0.0 | 0.0 | 0.00 | 0.00 | 0.00 | 81 | 934.1 |
| 20260901110537 | 44 | 360 | 0.0 | 0.0 | 0.00 | 0.00 | 0.00 | 82 | 934.2 |
| 20260901110044 | 44 | 360 | 0.0 | 0.0 | 0.00 | 0.00 | 0.00 | 82 | 934.2 |
| 20260901105538 | 44 | 360 | 0.0 | 0.0 | 0.00 | 0.00 | 0.00 | 83 | 934.2 |
| 20260901105037 | 43 | 360 | 0.0 | 0.0 | 0.00 | 0.00 | 0.00 | 83 | 934.2 |
| 20260901104537 | 43 | 360 | 0.0 | 0.0 | 0.00 | 0.00 | 0.00 | 82 | 934.2 |
| 20260901104037 | 43 | 360 | 0.0 | 0.0 | 0.00 | 0.00 | 0.00 | 82 | 934.2 |
| 20260901103535 | 43 | 360 | 0.0 | 0.0 | 0.00 | 0.00 | 0.00 | 81 | 934.2 |
| 20260901103035 | 43 | 360 | 0.0 | 0.0 | 0.00 | 0.00 | 0.00 | 80 | 934.2 |
| 20260901102534 | 44 | 360 | 0.0 | 0.0 | 0.00 | 0.00 | 0.00 | 80 | 934.0 |
| 20260901102133 | 44 | 360 | 0.0 | 0.0 | 0.00 | 0.00 | 0.00 | 79 | 934.1 |
| 20260901101030 | 45 | 360 | 0.0 | 0.0 | 0.00 | 0.00 | 0.00 | 79 | 934.1 |
| 20260901100530 | 45 | 360 | 0.0 | 0.0 | 0.00 | 0.00 | 0.00 | 79 | 934.0 |
| 20260901100030 | 45 | 360 | 0.0 | 0.0 | 0.00 | 0.00 | 0.00 | 79 | 934.0 |
| 20260901095531 | 45 | 360 | 0.0 | 0.0 | 0.00 | 0.00 | 0.00 | 80 | 934.1 |
| 20260901095031 | 45 | 360 | 0.0 | 0.0 | 0.00 | 0.00 | 0.00 | 80 | 934.0 |
| 20260901094530 | 45 | 360 | 0.0 | 0.0 | 0.00 | 0.00 | 0.00 | 79 | 934.0 |
| 20260901094031 | 45 | 360 | 0.0 | 0.0 | 0.00 | 0.00 | 0.00 | 79 | 933.9 |
| 20260901093529 | 46 | 360 | 0.0 | 0.0 | 0.00 | 0.00 | 0.00 | 79 | 933.9 |
| 20260901093029 | 46 | 360 | 0.0 | 0.0 | 0.00 | 0.00 | 0.00 | 78 | 934.0 |
| 20260901092529 | 46 | 360 | 0.0 | 0.0 | 0.00 | 0.00 | 0.00 | 79 | 933.9 |
| 20260901092131 | 46 | 360 | 0.0 | 0.0 | 0.00 | 0.00 | 0.00 | 80 | 934.0 |
| 20260901091029 | 45 | 360 | 0.0 | 0.0 | 0.00 | 0.00 | 0.00 | 79 | 934.0 |
| 20260901090529 | 45 | 360 | 0.0 | 0.0 | 0.00 | 0.00 | 0.00 | 79 | 934.1 |
| 20260901090028 | 45 | 360 | 0.0 | 0.0 | 0.00 | 0.00 | 0.00 | 79 | 934.0 |
| 20260901085529 | 46 | 360 | 0.0 | 0.0 | 0.00 | 0.00 | 0.00 | 79 | 934.0 |
| 20260901085029 | 46 | 360 | 0.0 | 0.0 | 0.00 | 0.00 | 0.00 | 78 | 934.1 |
| 20260901084532 | 46 | 360 | 0.0 | 0.0 | 0.00 | 0.00 | 0.00 | 78 | 934.1 |
| 20260901084028 | 47 | 360 | 0.0 | 0.0 | 0.00 | 0.00 | 0.00 | 77 | 934.1 |
| 20260901083531 | 47 | 360 | 0.0 | 0.0 | 0.00 | 0.00 | 0.00 | 79 | 934.1 |
| 20260901083029 | 47 | 360 | 0.0 | 0.0 | 0.00 | 0.00 | 0.00 | 79 | 934.2 |
| 20260901082528 | 47 | 360 | 0.0 | 0.0 | 0.00 | 0.00 | 0.00 | 79 | 934.2 |
| 20260901082028 | 46 | 360 | 0.0 | 0.0 | 0.00 | 0.00 | 0.00 | 80 | 934.1 |
| 20260901081029 | 45 | 360 | 0.0 | 0.0 | 0.00 | 0.00 | 0.00 | 78 | 934.1 |
| 20260901080528 | 45 | 360 | 0.0 | 0.0 | 0.00 | 0.00 | 0.00 | 79 | 934.1 |
| 20260901080027 | 45 | 360 | 0.0 | 0.0 | 0.00 | 0.00 | 0.00 | 78 | 934.1 |
| 20260901075526 | 45 | 360 | 0.0 | 0.0 | 0.00 | 0.00 | 0.00 | 77 | 934.1 |
| 20260901075023 | 46 | 360 | 0.0 | 0.0 | 0.00 | 0.00 | 0.00 | 75 | 934.0 |
| 20260901074524 | 47 | 360 | 0.0 | 0.0 | 0.00 | 0.00 | 0.00 | 75 | 933.9 |
| 20260901074023 | 48 | 360 | 0.0 | 0.0 | 0.00 | 0.00 | 0.00 | 74 | 934.0 |
| 20260901073523 | 48 | 360 | 0.0 | 0.0 | 0.00 | 0.00 | 0.00 | 74 | 934.1 |
| 20260901073025 | 49 | 360 | 0.0 | 0.0 | 0.00 | 0.00 | 0.00 | 76 | 934.2 |
| 20260901072524 | 49 | 360 | 0.0 | 0.0 | 0.00 | 0.00 | 0.00 | 76 | 934.2 |
| 20260901072022 | 48 | 360 | 0.0 | 0.0 | 0.00 | 0.00 | 0.00 | 76 | 934.1 |
| 20260901071024 | 47 | 360 | 0.0 | 0.0 | 0.00 | 0.00 | 0.00 | 77 | 934.0 |
| 20260901070522 | 46 | 360 | 0.0 | 0.0 | 0.00 | 0.00 | 0.00 | 77 | 933.9 |
| 20260901070027 | 47 | 360 | 0.0 | 0.0 | 0.00 | 0.00 | 0.00 | 74 | 934.0 |
| 20260901065520 | 48 | 360 | 0.0 | 0.0 | 0.00 | 0.00 | 0.00 | 72 | 934.1 |
| 20260901065019 | 49 | 360 | 0.0 | 0.0 | 0.00 | 0.00 | 0.00 | 70 | 934.0 |
| 20260901064518 | 50 | 360 | 0.0 | 0.0 | 0.00 | 0.00 | 0.00 | 69 | 933.9 |
| 20260901064018 | 51 | 360 | 0.0 | 1.0 | 0.00 | 0.00 | 0.00 | 71 | 933.9 |
| 20260901063516 | 51 | 360 | 0.0 | 4.0 | 0.00 | 0.00 | 0.00 | 71 | 933.9 |
| 20260901063016 | 51 | 360 | 1.0 | 5.0 | 0.00 | 0.00 | 0.00 | 71 | 933.8 |
| 20260901062515 | 51 | 360 | 4.0 | 5.0 | 0.00 | 0.00 | 0.00 | 73 | 933.9 |
| 20260901062015 | 49 | 360 | 0.0 | 0.0 | 0.00 | 0.00 | 0.00 | 73 | 933.8 |
| 20260901061015 | 50 | 360 | 0.0 | 0.0 | 0.00 | 0.00 | 0.00 | 72 | 933.5 |
| 20260901060515 | 50 | 360 | 0.0 | 0.0 | 0.00 | 0.00 | 0.00 | 71 | 933.5 |
| 20260901060015 | 50 | 360 | 0.0 | 0.0 | 0.00 | 0.00 | 0.00 | 72 | 933.6 |
| 20260901055514 | 50 | 360 | 0.0 | 0.0 | 0.00 | 0.00 | 0.00 | 71 | 933.7 |
| 20260901055015 | 50 | 360 | 0.0 | 1.0 | 0.00 | 0.00 | 0.00 | 71 | 933.7 |
| 20260901054514 | 50 | 360 | 0.0 | 2.0 | 0.00 | 0.00 | 0.00 | 71 | 933.7 |
| 20260901054014 | 50 | 360 | 0.0 | 2.0 | 0.00 | 0.00 | 0.00 | 70 | 933.6 |
| 20260901053513 | 51 | 360 | 0.0 | 1.0 | 0.00 | 0.00 | 0.00 | 68 | 933.5 |
| 20260901053014 | 52 | 360 | 0.0 | 4.0 | 0.00 | 0.00 | 0.00 | 67 | 933.5 |
| 20260901052511 | 52 | 360 | 0.0 | 4.0 | 0.00 | 0.00 | 0.00 | 67 | 933.5 |
| 20260901052011 | 53 | 360 | 2.0 | 4.0 | 0.00 | 0.00 | 0.00 | 65 | 933.4 |
| 20260901051010 | 56 | 360 | 0.0 | 4.0 | 0.00 | 0.00 | 0.00 | 64 | 933.2 |
| 20260901050509 | 54 | 360 | 0.0 | 3.0 | 0.00 | 0.00 | 0.00 | 65 | 933.3 |
| 20260901050008 | 55 | 360 | 0.0 | 0.0 | 0.00 | 0.00 | 0.00 | 65 | 933.2 |
| 20260901045508 | 55 | 360 | 0.0 | 0.0 | 0.00 | 0.00 | 0.00 | 64 | 933.2 |
| 20260901045008 | 55 | 360 | 0.0 | 0.0 | 0.00 | 0.00 | 0.00 | 64 | 933.0 |
| 20260901044509 | 55 | 360 | 0.0 | 1.0 | 0.00 | 0.00 | 0.00 | 63 | 933.1 |
| 20260901044009 | 56 | 360 | 0.0 | 5.0 | 0.00 | 0.00 | 0.00 | 63 | 933.0 |
| 20260901043508 | 55 | 360 | 2.0 | 5.0 | 0.00 | 0.00 | 0.00 | 65 | 933.1 |
| 20260901043009 | 54 | 360 | 1.0 | 5.0 | 0.00 | 0.00 | 0.00 | 66 | 933.1 |
| 20260901042508 | 54 | 360 | 3.0 | 5.0 | 0.00 | 0.00 | 0.00 | 64 | 933.1 |
| 20260901042008 | 59 | 360 | 0.0 | 2.0 | 0.00 | 0.00 | 0.00 | 60 | 933.1 |
| 20260901041013 | 60 | 360 | 0.0 | 0.0 | 0.00 | 0.00 | 0.00 | 56 | 933.3 |
| 20260901040509 | 60 | 360 | 0.0 | 4.0 | 0.00 | 0.00 | 0.00 | 57 | 933.4 |
| 20260901040009 | 60 | 360 | 0.0 | 4.0 | 0.00 | 0.00 | 0.00 | 58 | 933.3 |
| 20260901035508 | 59 | 360 | 2.0 | 4.0 | 0.00 | 0.00 | 0.00 | 59 | 933.3 |
| 20260901035009 | 58 | 360 | 0.0 | 2.0 | 0.00 | 0.00 | 0.00 | 60 | 933.3 |
| 20260901034511 | 57 | 360 | 0.0 | 0.0 | 0.00 | 0.00 | 0.00 | 62 | 933.4 |
| 20260901034007 | 57 | 360 | 0.0 | 1.0 | 0.00 | 0.00 | 0.00 | 62 | 933.3 |
| 20260901033506 | 56 | 360 | 0.0 | 2.0 | 0.00 | 0.00 | 0.00 | 63 | 933.2 |
| 20260901033006 | 56 | 360 | 0.0 | 5.0 | 0.00 | 0.00 | 0.00 | 62 | 933.2 |
| 20260901032507 | 57 | 360 | 0.0 | 6.0 | 0.00 | 0.00 | 0.00 | 61 | 933.2 |
| 20260901032006 | 57 | 360 | 4.0 | 6.0 | 0.00 | 0.00 | 0.00 | 61 | 933.2 |
| 20260901031007 | 57 | 360 | 3.0 | 6.0 | 0.00 | 0.00 | 0.00 | 61 | 933.1 |
| 20260901030507 | 57 | 360 | 4.0 | 5.0 | 0.00 | 0.00 | 0.00 | 60 | 933.0 |
| 20260901030007 | 58 | 360 | 4.0 | 7.0 | 0.00 | 0.00 | 0.00 | 59 | 933.0 |
| 20260901025504 | 58 | 360 | 5.0 | 8.0 | 0.00 | 0.00 | 0.00 | 59 | 932.9 |
| 20260901025003 | 59 | 360 | 6.0 | 7.0 | 0.00 | 0.00 | 0.00 | 57 | 932.8 |
| 20260901024503 | 60 | 360 | 5.0 | 6.0 | 0.00 | 0.00 | 0.00 | 56 | 932.8 |
| 20260901024002 | 60 | 360 | 4.0 | 6.0 | 0.00 | 0.00 | 0.00 | 56 | 932.7 |
| 20260901023501 | 61 | 360 | 4.0 | 6.0 | 0.00 | 0.00 | 0.00 | 55 | 932.7 |
| 20260901023000 | 62 | 360 | 4.0 | 6.0 | 0.00 | 0.00 | 0.00 | 53 | 932.6 |
| 20260901022600 | 62 | 360 | 4.0 | 6.0 | 0.00 | 0.00 | 0.00 | 53 | 932.6 |
| 20260901022059 | 62 | 360 | 5.0 | 7.0 | 0.00 | 0.00 | 0.00 | 53 | 932.4 |
| 20260901021100 | 64 | 360 | 6.0 | 7.0 | 0.00 | 0.00 | 0.00 | 51 | 932.4 |
| 20260901020559 | 64 | 360 | 5.0 | 7.0 | 0.00 | 0.00 | 0.00 | 50 | 932.3 |
| 20260901020059 | 65 | 360 | 5.0 | 7.0 | 0.00 | 0.00 | 0.00 | 49 | 932.3 |
| 20260901015558 | 66 | 360 | 5.0 | 7.0 | 0.00 | 0.00 | 0.00 | 47 | 932.2 |
| 20260901015057 | 68 | 261 | 5.0 | 9.0 | 0.00 | 0.00 | 0.00 | 46 | 932.1 |
| 20260901014602 | 69 | 360 | 5.0 | 9.0 | 0.00 | 0.00 | 0.00 | 44 | 932.0 |
| 20260901014056 | 70 | 360 | 6.0 | 13.0 | 0.00 | 0.00 | 0.00 | 43 | 932.0 |
| 20260901013556 | 72 | 287 | 7.0 | 13.0 | 0.00 | 0.00 | 0.00 | 41 | 931.9 |
| 20260901013054 | 72 | 360 | 8.0 | 13.0 | 0.00 | 0.00 | 0.00 | 41 | 931.9 |
| 20260901012554 | 73 | 360 | 9.0 | 14.0 | 0.00 | 0.00 | 0.00 | 40 | 931.7 |
| 20260901012053 | 73 | 290 | 10.0 | 14.0 | 0.00 | 0.00 | 0.00 | 40 | 931.6 |
| 20260901011053 | 74 | 300 | 12.0 | 19.0 | 0.00 | 0.00 | 0.00 | 39 | 931.5 |
| 20260901010556 | 74 | 318 | 13.0 | 19.0 | 0.00 | 0.00 | 0.00 | 39 | 931.4 |
| 20260901010053 | 74 | 302 | 11.0 | 19.0 | 0.00 | 0.00 | 0.00 | 38 | 931.5 |
| 20260901005552 | 75 | 285 | 12.0 | 21.0 | 0.00 | 0.00 | 0.00 | 39 | 931.4 |
| 20260901005050 | 75 | 271 | 11.0 | 18.0 | 0.00 | 0.00 | 0.00 | 39 | 931.4 |
| 20260901004551 | 75 | 300 | 12.0 | 20.0 | 0.00 | 0.00 | 0.00 | 38 | 931.4 |
| 20260901004050 | 76 | 271 | 14.0 | 20.0 | 0.00 | 0.00 | 0.00 | 38 | 931.4 |
| 20260901003552 | 76 | 299 | 11.0 | 21.0 | 0.00 | 0.00 | 0.00 | 37 | 931.4 |
| 20260901003056 | 76 | 302 | 16.0 | 26.0 | 0.00 | 0.00 | 0.00 | 37 | 931.4 |
| 20260901002550 | 76 | 298 | 19.0 | 26.0 | 0.00 | 0.00 | 0.00 | 37 | 931.3 |
| 20260901002049 | 76 | 324 | 16.0 | 23.0 | 0.00 | 0.00 | 0.00 | 37 | 931.3 |
| 20260901001049 | 76 | 294 | 17.0 | 26.0 | 0.00 | 0.00 | 0.00 | 38 | 931.3 |
| 20260901000550 | 77 | 270 | 19.0 | 26.0 | 0.00 | 0.00 | 0.00 | 37 | 931.1 |
| 20260901000048 | 77 | 300 | 13.0 | 26.0 | 0.00 | 0.00 | 0.00 | 38 | 931.1 |
| 20260831235549 | 77 | 309 | 17.0 | 26.0 | 0.00 | 0.00 | 0.00 | 38 | 931.2 |
| 20260831235048 | 77 | 259 | 15.0 | 23.0 | 0.00 | 0.00 | 0.00 | 37 | 931.1 |
| 20260831234549 | 77 | 298 | 13.0 | 24.0 | 0.00 | 0.00 | 0.00 | 37 | 931.2 |
| 20260831234048 | 77 | 283 | 18.0 | 26.0 | 0.00 | 0.00 | 0.00 | 37 | 931.2 |
| 20260831233550 | 78 | 283 | 20.0 | 26.0 | 0.00 | 0.00 | 0.00 | 37 | 931.1 |
| 20260831233048 | 78 | 273 | 15.0 | 25.0 | 0.00 | 0.00 | 0.00 | 37 | 931.1 |
| 20260831232546 | 78 | 292 | 18.0 | 27.0 | 0.00 | 0.00 | 0.00 | 36 | 931.1 |
| 20260831232046 | 78 | 279 | 17.0 | 24.0 | 0.00 | 0.00 | 0.00 | 36 | 930.9 |
| 20260831231045 | 78 | 277 | 18.0 | 25.0 | 0.00 | 0.00 | 0.00 | 37 | 931.0 |
| 20260831230544 | 78 | 302 | 20.0 | 25.0 | 0.00 | 0.00 | 0.00 | 36 | 931.0 |
| 20260831230044 | 78 | 275 | 15.0 | 29.0 | 0.00 | 0.00 | 0.00 | 38 | 931.1 |
| 20260831225547 | 78 | 271 | 18.0 | 29.0 | 0.00 | 0.00 | 0.00 | 38 | 931.0 |
| 20260831225045 | 78 | 289 | 16.0 | 23.0 | 0.00 | 0.00 | 0.00 | 38 | 931.0 |
| 20260831224543 | 77 | 292 | 15.0 | 27.0 | 0.00 | 0.00 | 0.00 | 38 | 931.1 |
| 20260831224042 | 78 | 265 | 20.0 | 27.0 | 0.00 | 0.00 | 0.00 | 36 | 931.0 |
| 20260831223542 | 78 | 278 | 18.0 | 26.0 | 0.00 | 0.00 | 0.00 | 37 | 931.0 |
| 20260831223043 | 78 | 270 | 17.0 | 24.0 | 0.00 | 0.00 | 0.00 | 36 | 931.0 |
| 20260831222542 | 78 | 293 | 15.0 | 32.0 | 0.00 | 0.00 | 0.00 | 36 | 930.9 |
| 20260831222042 | 78 | 296 | 19.0 | 32.0 | 0.00 | 0.00 | 0.00 | 37 | 930.9 |
| 20260831221043 | 79 | 275 | 18.0 | 24.0 | 0.00 | 0.00 | 0.00 | 36 | 931.0 |
| 20260831220543 | 79 | 296 | 15.0 | 28.0 | 0.00 | 0.00 | 0.00 | 38 | 931.0 |
| 20260831220052 | 78 | 284 | 21.0 | 31.0 | 0.00 | 0.00 | 0.00 | 37 | 930.9 |
| 20260831215544 | 78 | 288 | 20.0 | 31.0 | 0.00 | 0.00 | 0.00 | 37 | 930.7 |
| 20260831215042 | 79 | 293 | 19.0 | 30.0 | 0.00 | 0.00 | 0.00 | 37 | 930.8 |
| 20260831214544 | 78 | 268 | 21.0 | 30.0 | 0.00 | 0.00 | 0.00 | 37 | 930.8 |
| 20260831214042 | 78 | 274 | 20.0 | 29.0 | 0.00 | 0.00 | 0.00 | 37 | 930.7 |
| 20260831213542 | 78 | 263 | 19.0 | 29.0 | 0.00 | 0.00 | 0.00 | 37 | 930.8 |
| 20260831213044 | 78 | 269 | 21.0 | 29.0 | 0.00 | 0.00 | 0.00 | 37 | 930.8 |
| 20260831212545 | 78 | 275 | 22.0 | 32.0 | 0.00 | 0.00 | 0.00 | 37 | 930.7 |
| 20260831212040 | 79 | 262 | 20.0 | 32.0 | 0.00 | 0.00 | 0.00 | 37 | 930.8 |
| 20260831211038 | 79 | 306 | 20.0 | 30.0 | 0.00 | 0.00 | 0.00 | 38 | 930.9 |
| 20260831210541 | 78 | 288 | 19.0 | 32.0 | 0.00 | 0.00 | 0.00 | 39 | 930.8 |
| 20260831210039 | 79 | 279 | 22.0 | 32.0 | 0.00 | 0.00 | 0.00 | 37 | 930.9 |
| 20260831205537 | 78 | 290 | 23.0 | 30.0 | 0.00 | 0.00 | 0.00 | 38 | 930.8 |
| 20260831205037 | 78 | 244 | 21.0 | 35.0 | 0.00 | 0.00 | 0.00 | 37 | 930.6 |
| 20260831204549 | 78 | 303 | 23.0 | 35.0 | 0.00 | 0.00 | 0.00 | 37 | 930.7 |
| 20260831204036 | 78 | 269 | 23.0 | 31.0 | 0.00 | 0.00 | 0.00 | 36 | 930.6 |
| 20260831203536 | 78 | 317 | 22.0 | 31.0 | 0.00 | 0.00 | 0.00 | 36 | 930.6 |
| 20260831203054 | 78 | 268 | 18.0 | 36.0 | 0.00 | 0.00 | 0.00 | 37 | 930.5 |
| 20260831202535 | 78 | 268 | 23.0 | 36.0 | 0.00 | 0.00 | 0.00 | 37 | 930.4 |
| 20260831202036 | 79 | 274 | 22.0 | 35.0 | 0.00 | 0.00 | 0.00 | 36 | 930.4 |
| 20260831201035 | 78 | 265 | 25.0 | 34.0 | 0.00 | 0.00 | 0.00 | 36 | 930.5 |
| 20260831200535 | 78 | 255 | 23.0 | 33.0 | 0.00 | 0.00 | 0.00 | 37 | 930.6 |
| 20260831200039 | 77 | 271 | 22.0 | 37.0 | 0.00 | 0.00 | 0.00 | 38 | 930.5 |
| 20260831195534 | 78 | 271 | 26.0 | 37.0 | 0.00 | 0.00 | 0.00 | 36 | 930.6 |
| 20260831195033 | 78 | 284 | 22.0 | 33.0 | 0.00 | 0.00 | 0.00 | 37 | 930.6 |
| 20260831194532 | 77 | 360 | 24.0 | 34.0 | 0.00 | 0.00 | 0.00 | 37 | 930.4 |
| 20260831194034 | 77 | 360 | 24.0 | 40.0 | 0.00 | 0.00 | 0.00 | 37 | 930.5 |
| 20260831193532 | 77 | 360 | 26.0 | 40.0 | 0.00 | 0.00 | 0.00 | 37 | 930.3 |
| 20260831193031 | 77 | 360 | 21.0 | 34.0 | 0.00 | 0.00 | 0.00 | 38 | 930.4 |
| 20260831192529 | 77 | 360 | 25.0 | 33.0 | 0.00 | 0.00 | 0.00 | 37 | 930.3 |
| 20260831192030 | 77 | 360 | 24.0 | 35.0 | 0.00 | 0.00 | 0.00 | 38 | 930.4 |
| 20260831191029 | 77 | 360 | 26.0 | 34.0 | 0.00 | 0.00 | 0.00 | 38 | 930.4 |
| 20260831190534 | 77 | 360 | 25.0 | 35.0 | 0.00 | 0.00 | 0.00 | 39 | 930.2 |
| 20260831190040 | 76 | 360 | 24.0 | 36.0 | 0.00 | 0.00 | 0.00 | 41 | 930.3 |
| 20260831185531 | 76 | 360 | 26.0 | 36.0 | 0.00 | 0.00 | 0.00 | 39 | 930.4 |
| 20260831185126 | 76 | 360 | 25.0 | 36.0 | 0.00 | 0.00 | 0.00 | 41 | 930.4 |
| 20260831184530 | 75 | 360 | 27.0 | 35.0 | 0.00 | 0.00 | 0.00 | 42 | 930.3 |
| 20260831184030 | 76 | 360 | 24.0 | 34.0 | 0.00 | 0.00 | 0.00 | 42 | 930.4 |
| 20260831183526 | 76 | 360 | 24.0 | 35.0 | 0.00 | 0.00 | 0.00 | 42 | 930.4 |
| 20260831183027 | 76 | 360 | 24.0 | 35.0 | 0.00 | 0.00 | 0.00 | 42 | 930.4 |
| 20260831182526 | 75 | 360 | 26.0 | 37.0 | 0.00 | 0.00 | 0.00 | 42 | 930.4 |
| 20260831182024 | 75 | 360 | 27.0 | 37.0 | 0.00 | 0.00 | 0.00 | 42 | 930.2 |
| 20260831181023 | 76 | 246 | 18.0 | 32.0 | 0.00 | 0.00 | 0.00 | 43 | 930.2 |
| 20260831180524 | 76 | 254 | 22.0 | 36.0 | 0.00 | 0.00 | 0.00 | 43 | 930.1 |
| 20260831180022 | 74 | 284 | 25.0 | 36.0 | 0.00 | 0.00 | 0.00 | 43 | 930.1 |
| 20260831175521 | 75 | 306 | 26.0 | 39.0 | 0.00 | 0.00 | 0.00 | 43 | 930.1 |
| 20260831175021 | 74 | 289 | 29.0 | 39.0 | 0.00 | 0.00 | 0.00 | 42 | 930.1 |
| 20260831174522 | 74 | 271 | 25.0 | 34.0 | 0.00 | 0.00 | 0.00 | 44 | 930.1 |
| 20260831174022 | 74 | 262 | 21.0 | 36.0 | 0.00 | 0.00 | 0.00 | 46 | 930.2 |
| 20260831173519 | 73 | 288 | 26.0 | 40.0 | 0.00 | 0.00 | 0.00 | 45 | 930.2 |
| 20260831173018 | 73 | 255 | 26.0 | 40.0 | 0.00 | 0.00 | 0.00 | 46 | 930.1 |
| 20260831172517 | 73 | 296 | 24.0 | 36.0 | 0.00 | 0.00 | 0.00 | 46 | 930.2 |
| 20260831172017 | 73 | 242 | 23.0 | 36.0 | 0.00 | 0.00 | 0.00 | 47 | 929.9 |
| 20260831171019 | 73 | 258 | 25.0 | 36.0 | 0.00 | 0.00 | 0.00 | 47 | 930.2 |
| 20260831170516 | 73 | 267 | 24.0 | 37.0 | 0.00 | 0.00 | 0.00 | 47 | 930.2 |
| 20260831170022 | 72 | 263 | 25.0 | 37.0 | 0.00 | 0.00 | 0.00 | 47 | 930.2 |
| 20260831165519 | 72 | 261 | 25.0 | 36.0 | 0.00 | 0.00 | 0.00 | 47 | 930.0 |
| 20260831165013 | 72 | 271 | 22.0 | 34.0 | 0.00 | 0.00 | 0.00 | 46 | 930.1 |
| 20260831164512 | 72 | 279 | 26.0 | 34.0 | 0.00 | 0.00 | 0.00 | 46 | 930.0 |
| 20260831164014 | 71 | 281 | 22.0 | 34.0 | 0.00 | 0.00 | 0.00 | 46 | 929.9 |
| 20260831163511 | 71 | 264 | 26.0 | 38.0 | 0.00 | 0.00 | 0.00 | 46 | 930.0 |
| 20260831163010 | 71 | 360 | 27.0 | 38.0 | 0.00 | 0.00 | 0.00 | 45 | 929.9 |
| 20260831162510 | 70 | 360 | 26.0 | 37.0 | 0.00 | 0.00 | 0.00 | 46 | 929.9 |
| 20260831162007 | 70 | 360 | 25.0 | 36.0 | 0.00 | 0.00 | 0.00 | 46 | 930.0 |
| 20260831161009 | 70 | 360 | 24.0 | 36.0 | 0.00 | 0.00 | 0.00 | 46 | 930.0 |
| 20260831160507 | 70 | 360 | 22.0 | 35.0 | 0.00 | 0.00 | 0.00 | 44 | 929.9 |
| 20260831160007 | 69 | 360 | 25.0 | 36.0 | 0.00 | 0.00 | 0.00 | 45 | 929.9 |
| 20260831155507 | 69 | 360 | 25.0 | 39.0 | 0.00 | 0.00 | 0.00 | 45 | 929.9 |
| 20260831155006 | 69 | 360 | 23.0 | 39.0 | 0.00 | 0.00 | 0.00 | 44 | 929.7 |
| 20260831154509 | 68 | 360 | 24.0 | 38.0 | 0.00 | 0.00 | 0.00 | 44 | 929.9 |
| 20260831154006 | 69 | 360 | 22.0 | 38.0 | 0.00 | 0.00 | 0.00 | 44 | 929.8 |
| 20260831153506 | 68 | 256 | 21.0 | 30.0 | 0.00 | 0.00 | 0.00 | 45 | 929.9 |
| 20260831153005 | 68 | 360 | 17.0 | 29.0 | 0.00 | 0.00 | 0.00 | 46 | 929.9 |
| 20260831152506 | 67 | 360 | 20.0 | 29.0 | 0.00 | 0.00 | 0.00 | 46 | 929.9 |
| 20260831152001 | 67 | 262 | 21.0 | 31.0 | 0.00 | 0.00 | 0.00 | 46 | 929.9 |
| 20260831151100 | 67 | 261 | 20.0 | 31.0 | 0.00 | 0.00 | 0.00 | 46 | 929.7 |
| 20260831150600 | 67 | 360 | 18.0 | 32.0 | 0.00 | 0.00 | 0.00 | 47 | 929.7 |
| 20260831150100 | 66 | 360 | 19.0 | 32.0 | 0.00 | 0.00 | 0.00 | 47 | 929.7 |
| 20260831145558 | 66 | 360 | 19.0 | 31.0 | 0.00 | 0.00 | 0.00 | 46 | 929.7 |
| 20260831145057 | 66 | 360 | 20.0 | 30.0 | 0.00 | 0.00 | 0.00 | 47 | 929.7 |
| 20260831144601 | 65 | 360 | 23.0 | 30.0 | 0.00 | 0.00 | 0.00 | 47 | 929.7 |
| 20260831144056 | 65 | 360 | 19.0 | 29.0 | 0.00 | 0.00 | 0.00 | 48 | 929.7 |
| 20260831143555 | 65 | 360 | 20.0 | 29.0 | 0.00 | 0.00 | 0.00 | 47 | 929.5 |
| 20260831143056 | 65 | 360 | 16.0 | 25.0 | 0.00 | 0.00 | 0.00 | 48 | 929.5 |
| 20260831142556 | 64 | 360 | 17.0 | 26.0 | 0.00 | 0.00 | 0.00 | 48 | 929.5 |
| 20260831142053 | 64 | 360 | 17.0 | 32.0 | 0.00 | 0.00 | 0.00 | 49 | 929.4 |
| 20260831141053 | 63 | 360 | 20.0 | 30.0 | 0.00 | 0.00 | 0.00 | 49 | 929.5 |
| 20260831140551 | 63 | 360 | 14.0 | 30.0 | 0.00 | 0.00 | 0.00 | 49 | 929.6 |
| 20260831140051 | 63 | 360 | 17.0 | 29.0 | 0.00 | 0.00 | 0.00 | 48 | 929.5 |
| 20260831135551 | 63 | 360 | 18.0 | 26.0 | 0.00 | 0.00 | 0.00 | 48 | 929.5 |
| 20260831135051 | 63 | 360 | 15.0 | 24.0 | 0.00 | 0.00 | 0.00 | 48 | 929.5 |
| 20260831134551 | 63 | 360 | 14.0 | 26.0 | 0.00 | 0.00 | 0.00 | 49 | 929.5 |
| 20260831134047 | 63 | 360 | 17.0 | 26.0 | 0.00 | 0.00 | 0.00 | 50 | 929.6 |